QPF
0.00 0.00 0.00 0.00 0.00 0.00 0.00 0.00 0.00 0.00 0.00 0.00 0.00 0.00 0.00 0.00 0.00 0.00 0.00 0.00 0.00 0.00 0.00 0.00 0.00 0.00 0.00 0.00 0.00 0.00 0.00 0.00 0.00 0.00 0.00 0.00 0.00 0.00 0.00 0.00 0.00 0.00
0.00 0.00 0.00 0.00 0.00 0.00 0.00 0.00 0.00 0.00 0.00 0.00 0.00 0.00 0.00 0.00 0.00 0.00 0.00 0.00 0.00 0.00 0.00 0.00 0.00 0.00 0.00 0.00 0.00 0.00 0.00 0.00 0.00 0.00 0.00 0.00 0.00 0.00 0.00 0.00 0.00 0.00
0.00 0.00 0.00 0.00 0.00 0.00 0.00 0.00 0.00 0.00 0.00 0.00 0.00 0.00 0.00 0.00 0.00 0.00 0.00 0.00 0.00 0.00 0.00 0.00 0.00 0.00 0.00 0.00 0.00 0.00 0.00 0.00 0.00 0.00 0.00 0.00 0.00 0.00 0.00 0.00 0.00 0.00
0.00 0.00 0.00 0.00 0.00 0.00 0.00 0.00 0.00 0.00 0.00 0.00 0.00 0.00 0.00 0.00 0.00 0.00 0.00 0.00 0.00 0.00 0.00 0.00 0.00 0.00 0.00 0.00 0.00 0.00 0.00 0.00 0.00 0.00 0.00 0.00 0.00 0.00 0.00 0.00 0.00 0.00
0.00 0.00 0.00 0.00 0.00 0.00 0.00 0.00 0.00 0.00 0.00 0.00 0.00 0.00 0.00 0.00 0.00 0.00 0.00 0.00 0.00 0.00 0.00 0.00 0.00 0.00 0.00 0.00 0.00 0.00 0.00 0.00 0.00 0.00 0.00 0.00 0.00 0.00 0.00 0.00 0.00 0.00
0.00 0.00 0.00 0.00 0.00 0.00 0.00 0.00 0.00 0.00 0.00 0.00 0.00 0.00 0.00 0.00 0.00 0.00 0.00 0.00 0.00 0.00 0.00 0.00 0.00 0.00 0.00 0.00 0.00 0.00 0.00 0.00 0.00 0.00 0.00 0.00 0.00 0.00 0.00 0.00 0.00 0.00
0.00 0.00 0.00 0.00 0.00 0.00 0.00 0.00 0.00 0.00 0.00 0.00 0.00 0.00 0.00 0.00 0.00 0.00 0.00 0.00 0.00 0.00 0.00 0.00 0.00 0.00 0.00 0.00 0.00 0.00 0.00 0.00 0.00 0.00 0.00 0.00 0.00 0.00 0.00 0.00 0.00 0.00
0.00 0.00 0.00 0.00 0.00 0.00 0.00 0.00 0.00 0.00 0.00 0.00 0.00 0.00 0.00 0.00 0.00 0.00 0.00 0.00 0.00 0.00 0.00 0.00 0.00 0.00 0.00 0.00 0.00 0.00 0.00 0.00 0.00 0.00 0.00 0.00 0.00 0.00 0.00 0.00 0.00 0.00
0.00 0.00 0.00 0.00 0.00 0.00 0.00 0.00 0.00 0.00 0.00 0.00 0.00 0.00 0.00 0.00 0.00 0.00 0.00 0.00 0.00 0.00 0.00 0.00 0.00 0.00 0.00 0.00 0.00 0.00 0.00 0.00 0.00 0.00 0.00 0.00 0.00 0.00 0.00 0.00 0.00 0.00
0.00 0.00 0.00 0.00 0.00 0.00 0.00 0.00 0.00 0.00 0.00 0.00 0.00 0.00 0.00 0.00 0.00 0.00 0.00 0.00 0.00 0.00 0.00 0.00 0.00 0.00 0.00 0.00 0.00 0.00 0.00 0.00 0.00 0.00 0.00 0.00 0.00 0.00 0.00 0.00 0.00 0.00
0.00 0.00 0.00 0.00 0.00 0.00 0.00 0.00 0.00 0.00 0.00 0.00 0.00 0.00 0.00 0.00 0.00 0.00 0.00 0.00 0.00 0.00 0.00 0.00 0.00 0.00 0.00 0.00 0.00 0.00 0.00 0.00 0.00 0.00 0.00 0.00 0.00 0.00 0.00 0.00 0.00 0.00
0.00 0.00 0.00 0.00 0.00 0.00 0.00 0.00 0.00 0.00 0.00 0.00 0.00 0.00 0.00 0.00 0.00 0.00 0.00 0.00 0.00 0.00 0.00 0.00 0.00 0.00 0.00 0.00 0.00 0.00 0.00 0.00 0.00 0.00 0.00 0.00 0.00 0.00 0.00 0.00 0.00 0.00
0.00 0.00 0.00 0.00 0.00 0.00 0.00 0.00 0.00 0.00 0.00 0.00 0.00 0.00 0.00 0.00 0.00 0.00 0.00 0.00 0.00 0.00 0.00 0.00 0.00 0.00 0.00 0.00 0.00 0.00 0.00 0.00 0.00 0.00 0.00 0.00 0.00 0.00 0.00 0.00 0.00 0.00
0.00 0.00 0.00 0.00 0.00 0.00 0.00 0.00 0.00 0.00 0.00 0.00 0.00 0.00 0.00 0.00 0.00 0.00 0.00 0.00 0.00 0.00 0.00 0.00 0.00 0.00 0.00 0.00 0.00 0.00 0.00 0.00 0.00 0.00 0.00 0.00 0.00 0.00 0.00 0.00 0.00 0.00
0.00 0.00 0.00 0.00 0.00 0.00 0.00 0.00 0.00 0.00 0.00 0.00 0.00 0.00 0.00 0.00 0.00 0.00 0.00 0.00 0.00 0.00 0.00 0.00 0.00 0.00 0.00 0.00 0.00 0.00 0.00 0.00 0.00 0.00 0.00 0.00 0.00 0.00 0.00 0.00 0.00 0.00
0.00 0.00 0.00 0.00 0.00 0.00 0.00 0.00 0.00 0.00 0.00 0.00 0.00 0.00 0.00 0.00 0.00 0.00 0.00 0.00 0.00 0.00 0.00 0.00 0.00 0.00 0.00 0.00 0.00 0.00 0.00 0.00 0.00 0.00 0.00 0.00 0.00 0.00 0.00 0.00 0.00 0.00
0.00 0.00 0.00 0.00 0.00 0.00 0.00 0.00 0.00 0.00 0.00 0.00 0.00 0.00 0.00 0.00 0.00 0.00 0.00 0.00 0.00 0.00 0.00 0.00 0.00 0.00 0.00 0.00 0.00 0.00 0.00 0.00 0.00 0.06 0.03 0.00 0.00 0.00 0.00 0.00 0.00 0.00
0.00 0.00 0.00 0.00 0.00 0.00 0.00 0.00 0.00 0.00 0.00 0.00 0.00 0.00 0.00 0.00 0.00 0.00 0.00 0.00 0.00 0.00 0.00 0.00 0.00 0.00 0.00 0.00 0.00 0.01 0.00 0.00 0.01 0.03 0.03 0.03 0.05 0.02 0.00 0.00 0.00 0.00
0.00 0.00 0.00 0.00 0.00 0.00 0.00 0.00 0.00 0.00 0.00 0.00 0.00 0.00 0.00 0.00 0.00 0.00 0.00 0.00 0.00 0.00 0.00 0.00 0.00 0.00 0.00 0.00 0.00 0.00 0.02 0.02 0.00 0.02 0.05 0.05 0.03 0.08 0.05 0.06 0.04 0.01
0.00 0.00 0.00 0.00 0.00 0.00 0.00 0.00 0.00 0.00 0.00 0.00 0.00 0.00 0.00 0.00 0.00 0.00 0.00 0.00 0.00 0.00 0.01 0.00 0.05 0.00 0.00 0.00 0.00 0.00 0.00 0.02 0.27 0.02 0.00 0.00 0.01 0.03 0.05 0.07 0.02 0.04
0.00 0.00 0.01 0.00 0.00 0.00 0.00 0.00 0.00 0.00 0.00 0.00 0.00 0.00 0.00 0.00 0.00 0.00 0.00 0.00 0.00 0.00 0.00 0.01 0.00 0.00 0.00 0.00 0.00 0.00 0.00 0.00 0.04 0.01 0.00 0.00 0.00 0.00 0.00 0.01 0.07 0.03
0.05 0.04 0.13 0.05 0.02 0.00 0.00 0.00 0.00 0.00 0.00 0.00 0.00 0.00 0.00 0.00 0.00 0.00 0.00 0.00 0.04 0.02 0.00 0.03 0.00 0.00 0.00 0.00 0.00 0.00 0.00 0.00 0.00 0.00 0.00 0.00 0.00 0.00 0.00 0.00 0.00 0.00
0.02 0.02 0.02 0.04 0.14 0.06 0.02 0.02 0.01 0.03 0.00 0.00 0.00 0.00 0.00 0.00 0.00 0.00 0.00 0.00 0.00 0.00 0.00 0.00 0.00 0.00 0.00 0.00 0.00 0.00 0.00 0.00 0.00 0.00 0.00 0.00 0.00 0.00 0.00 0.00 0.00 0.00
0.03 0.05 0.10 0.06 0.18 0.20 0.31 0.06 0.04 0.03 0.07 0.01 0.01 0.08 0.05 0.00 0.00 0.00 0.00 0.03 0.00 0.00 0.00 0.00 0.00 0.00 0.00 0.00 0.00 0.00 0.00 0.00 0.00 0.00 0.00 0.00 0.00 0.00 0.00 0.00 0.00 0.00
0.06 0.05 0.04 0.05 0.05 0.05 0.06 0.17 0.20 0.11 0.04 0.03 0.06 0.05 0.11 0.23 0.10 0.10 0.04 0.04 0.00 0.00 0.00 0.00 0.00 0.00 0.00 0.00 0.00 0.00 0.00 0.00 0.00 0.00 0.00 0.00 0.00 0.00 0.00 0.00 0.00 0.00
0.16 0.25 0.15 0.10 0.21 0.06 0.09 0.05 0.04 0.05 0.07 0.10 0.15 0.11 0.12 0.09 0.09 0.18 0.36 0.07 0.01 0.00 0.00 0.00 0.00 0.00 0.00 0.00 0.00 0.00 0.00 0.00 0.00 0.00 0.00 0.01 0.01 0.01 0.01 0.01 0.00 0.00
MSLP
1020.02 1020.14 1020.34 1020.50 1020.50 1020.50 1020.54 1020.74 1020.70 1020.86 1020.98 1020.94 1021.14 1021.14 1021.22 1021.10 1021.02 1021.14 1021.18 1021.22 1021.30 1021.38 1021.42 1021.50 1021.50 1021.62 1021.54 1021.62 1021.70 1021.82 1021.90 1021.94 1021.86 1021.78 1021.90 1021.86 1021.86 1021.90 1021.94 1021.94 1021.90 1021.86
1019.94 1020.02 1020.10 1020.18 1020.38 1020.38 1020.42 1020.38 1020.50 1020.66 1020.82 1020.82 1020.78 1020.82 1020.86 1020.90 1020.94 1021.02 1021.14 1021.26 1021.22 1021.30 1021.26 1021.34 1021.42 1021.46 1021.54 1021.54 1021.66 1021.78 1021.86 1021.82 1021.90 1021.46 1021.82 1021.86 1021.82 1021.74 1021.78 1021.70 1021.70 1021.58
1019.74 1019.90 1020.02 1020.18 1020.18 1020.22 1020.14 1020.14 1020.26 1020.38 1020.46 1020.42 1020.46 1020.62 1020.70 1020.62 1020.82 1020.86 1020.98 1021.06 1021.18 1021.10 1021.18 1021.26 1021.34 1021.38 1021.42 1021.50 1021.58 1021.66 1021.70 1021.82 1021.90 1021.50 1021.70 1021.82 1021.62 1021.74 1021.54 1021.34 1021.30 1021.38
1019.58 1019.62 1019.66 1019.70 1019.74 1019.90 1019.90 1020.10 1020.22 1020.30 1020.26 1020.50 1020.54 1020.34 1020.46 1020.46 1020.62 1020.78 1020.90 1021.02 1021.14 1021.14 1021.06 1021.14 1021.22 1021.22 1021.26 1021.34 1021.50 1021.58 1021.50 1021.62 1021.50 1021.50 1021.70 1021.58 1021.54 1021.46 1021.42 1021.34 1021.30 1021.22
1019.26 1019.46 1019.50 1019.54 1019.54 1019.66 1019.78 1020.02 1020.10 1020.10 1020.26 1020.22 1020.18 1020.26 1020.46 1020.62 1020.70 1020.70 1020.82 1020.94 1021.02 1021.06 1021.02 1021.14 1021.10 1021.18 1021.18 1021.30 1021.38 1021.58 1021.50 1021.54 1021.42 1021.54 1021.74 1021.78 1021.50 1021.46 1021.30 1021.30 1021.50 1021.54
1018.98 1019.14 1019.26 1019.42 1019.54 1019.70 1019.86 1019.94 1019.94 1019.94 1020.02 1020.10 1020.14 1020.02 1020.18 1020.34 1020.50 1020.54 1020.62 1020.74 1020.70 1020.82 1020.86 1020.82 1020.94 1020.94 1020.98 1021.10 1021.26 1021.42 1021.38 1021.42 1021.26 1021.42 1021.66 1021.74 1021.54 1021.18 1021.18 1021.26 1021.42 1021.54
1018.86 1018.98 1019.14 1019.14 1019.30 1019.38 1019.66 1019.70 1019.70 1019.74 1019.74 1019.74 1019.78 1020.02 1019.98 1020.22 1020.38 1020.42 1020.46 1020.54 1020.58 1020.62 1020.66 1020.78 1020.94 1020.98 1020.90 1021.02 1021.22 1021.38 1021.34 1021.38 1021.34 1021.42 1021.66 1021.58 1021.46 1021.46 1021.14 1021.18 1021.34 1021.46
1018.50 1018.58 1018.74 1018.90 1019.10 1019.18 1019.42 1019.46 1019.50 1019.58 1019.58 1019.66 1019.90 1019.82 1019.86 1020.02 1020.14 1020.10 1020.18 1020.34 1020.46 1020.50 1020.58 1020.58 1020.70 1020.86 1020.78 1020.82 1021.10 1021.26 1021.30 1021.10 1021.22 1021.38 1021.54 1021.58 1021.46 1021.58 1021.34 1021.10 1021.14 1021.34
1018.18 1018.38 1018.50 1018.74 1018.94 1018.98 1019.14 1019.10 1019.18 1019.26 1019.30 1019.58 1019.66 1019.62 1019.58 1019.74 1019.82 1019.86 1020.06 1020.18 1020.34 1020.42 1020.50 1020.54 1020.62 1020.66 1020.58 1020.70 1020.86 1021.02 1021.18 1021.06 1020.90 1021.10 1021.30 1021.38 1021.38 1021.34 1021.18 1020.94 1021.10 1021.14
1018.22 1018.18 1018.34 1018.54 1018.74 1018.74 1018.86 1018.82 1018.82 1018.98 1019.06 1019.30 1019.34 1019.34 1019.50 1019.50 1019.58 1019.66 1019.82 1020.10 1020.26 1020.34 1020.38 1020.42 1020.46 1020.46 1020.42 1020.46 1020.66 1020.70 1020.86 1020.98 1020.90 1020.94 1020.94 1021.02 1021.06 1021.02 1020.90 1020.86 1020.90 1020.98
1018.06 1018.10 1018.30 1018.42 1018.54 1018.46 1018.58 1018.58 1018.62 1018.74 1018.82 1019.06 1019.10 1019.22 1019.26 1019.30 1019.50 1019.50 1019.74 1019.94 1020.06 1020.10 1020.18 1020.22 1020.22 1020.22 1020.38 1020.34 1020.30 1020.30 1020.46 1020.54 1020.62 1020.66 1020.70 1020.74 1020.74 1020.70 1020.70 1020.70 1020.74 1020.78
1018.02 1017.98 1018.10 1018.22 1018.30 1018.30 1018.34 1018.34 1018.38 1018.54 1018.66 1018.74 1018.82 1019.10 1019.14 1019.18 1019.30 1019.38 1019.50 1019.74 1019.74 1019.78 1019.82 1019.90 1019.90 1019.98 1020.14 1020.22 1020.14 1020.14 1020.22 1020.30 1020.34 1020.42 1020.42 1020.46 1020.42 1020.34 1020.34 1020.30 1020.38 1020.42
1017.90 1017.86 1017.86 1017.94 1018.06 1018.10 1018.02 1018.14 1018.26 1018.30 1018.42 1018.62 1018.58 1018.78 1018.98 1019.06 1019.02 1019.22 1019.22 1019.38 1019.46 1019.50 1019.58 1019.66 1019.74 1019.74 1019.90 1019.98 1020.02 1020.02 1020.14 1020.26 1020.26 1020.26 1020.30 1020.26 1020.18 1020.10 1019.94 1019.90 1019.90 1019.90
1017.54 1017.54 1017.66 1017.70 1017.70 1017.86 1017.94 1017.98 1018.06 1018.14 1018.26 1018.34 1018.42 1018.74 1018.82 1018.86 1018.90 1018.94 1018.94 1019.02 1019.14 1019.22 1019.26 1019.30 1019.50 1019.62 1019.66 1019.74 1019.78 1019.82 1019.94 1020.02 1020.10 1020.14 1020.14 1020.10 1019.98 1019.86 1019.74 1019.66 1019.58 1019.54
1017.22 1017.34 1017.38 1017.54 1017.66 1017.78 1017.90 1017.94 1017.98 1018.06 1018.14 1018.26 1018.38 1018.54 1018.46 1018.50 1018.54 1018.62 1018.82 1018.94 1018.90 1019.02 1019.10 1019.06 1019.22 1019.34 1019.30 1019.42 1019.62 1019.70 1019.66 1019.78 1019.82 1019.86 1019.94 1020.02 1019.94 1019.70 1019.50 1019.50 1019.42 1019.30
1017.02 1017.14 1017.30 1017.38 1017.62 1017.74 1017.82 1017.82 1017.86 1017.90 1017.98 1018.14 1018.26 1018.30 1018.38 1018.46 1018.54 1018.58 1018.66 1018.78 1018.94 1018.94 1018.90 1018.90 1018.94 1018.86 1018.94 1019.14 1019.22 1019.30 1019.42 1019.42 1019.50 1019.54 1019.66 1019.74 1019.82 1019.82 1019.58 1019.30 1019.14 1019.06
1016.98 1017.18 1017.26 1017.54 1017.54 1017.62 1017.70 1017.82 1017.90 1017.86 1017.98 1018.10 1018.18 1018.22 1018.34 1018.42 1018.50 1018.66 1018.62 1018.58 1018.62 1018.70 1018.78 1018.66 1018.58 1018.46 1018.66 1018.90 1019.10 1019.22 1019.26 1019.34 1019.54 1019.90 1019.62 1019.50 1019.54 1019.70 1019.74 1019.38 1019.02 1018.86
1016.98 1017.14 1017.34 1017.46 1017.54 1017.70 1017.70 1017.74 1017.82 1017.98 1018.14 1018.18 1018.22 1018.26 1018.30 1018.26 1018.46 1018.54 1018.58 1018.54 1018.46 1018.42 1018.46 1018.34 1018.22 1018.18 1018.50 1018.70 1018.90 1019.06 1019.14 1019.10 1019.06 1019.26 1019.42 1019.66 1019.70 1019.54 1019.30 1019.10 1019.02 1018.82
1016.74 1017.06 1017.26 1017.38 1017.46 1017.54 1017.58 1017.66 1017.82 1018.02 1018.14 1018.22 1018.30 1018.10 1018.06 1018.30 1018.42 1018.42 1018.46 1018.38 1018.38 1018.50 1018.38 1018.14 1018.02 1017.94 1018.26 1018.50 1018.70 1018.82 1018.94 1018.98 1018.78 1018.86 1019.10 1019.18 1019.22 1019.34 1019.50 1019.42 1019.06 1018.82
1016.66 1016.90 1017.18 1017.34 1017.38 1017.46 1017.54 1017.70 1017.82 1017.94 1017.90 1017.86 1017.94 1018.02 1018.22 1018.30 1018.18 1018.30 1018.26 1018.30 1018.30 1018.30 1018.30 1018.18 1018.42 1018.22 1018.46 1018.62 1018.74 1018.86 1019.06 1019.30 1018.94 1018.78 1018.82 1018.74 1018.78 1018.82 1019.10 1019.14 1018.66 1018.70
1016.66 1016.86 1017.26 1017.46 1017.58 1017.62 1017.62 1017.66 1017.74 1017.78 1017.86 1017.94 1018.02 1018.10 1018.14 1018.22 1018.22 1018.26 1018.18 1018.14 1018.06 1017.98 1018.10 1018.02 1018.02 1018.58 1018.74 1018.90 1019.02 1019.18 1019.22 1019.14 1018.78 1018.70 1018.58 1018.38 1018.22 1018.18 1018.18 1018.14 1018.26 1018.22
1016.62 1016.90 1017.10 1017.38 1017.70 1017.86 1017.82 1017.74 1017.62 1017.78 1018.06 1018.10 1018.22 1018.18 1018.10 1018.10 1018.06 1018.02 1018.10 1018.14 1018.06 1018.18 1018.42 1018.30 1018.50 1019.02 1019.14 1019.18 1019.26 1019.26 1019.34 1019.10 1018.74 1018.78 1018.62 1018.38 1018.22 1018.06 1018.02 1017.98 1017.94 1018.06
1017.02 1017.10 1017.26 1017.34 1017.38 1017.78 1017.90 1017.70 1017.62 1017.70 1017.86 1018.02 1018.50 1018.42 1018.26 1018.18 1018.14 1018.14 1018.18 1018.26 1018.38 1018.42 1018.46 1018.50 1018.74 1019.30 1019.38 1019.38 1019.34 1019.38 1019.22 1018.78 1018.66 1018.62 1018.54 1018.42 1018.22 1018.02 1017.94 1017.90 1017.94 1018.02
1017.34 1017.30 1017.06 1017.06 1017.22 1017.50 1017.78 1017.94 1017.78 1017.50 1017.46 1017.50 1018.26 1018.90 1018.98 1018.46 1018.30 1018.30 1018.30 1018.26 1018.34 1018.58 1018.70 1018.74 1019.02 1019.42 1019.50 1019.38 1019.30 1019.22 1019.06 1018.70 1018.54 1018.50 1018.46 1018.38 1018.22 1018.10 1018.06 1018.10 1018.10 1018.30
1017.22 1017.66 1017.46 1017.18 1017.26 1017.46 1017.58 1017.82 1017.90 1017.90 1017.74 1017.74 1018.14 1018.58 1019.18 1019.38 1018.78 1018.54 1018.50 1018.50 1018.50 1018.62 1018.94 1019.10 1019.38 1019.70 1019.94 1019.82 1019.50 1019.22 1018.90 1018.62 1018.58 1018.58 1018.66 1018.50 1018.26 1018.18 1018.14 1018.30 1018.62 1018.98
1016.86 1017.42 1017.26 1017.06 1017.62 1017.66 1017.50 1017.66 1017.86 1017.98 1017.94 1017.90 1018.14 1018.46 1018.94 1019.26 1019.22 1018.70 1018.74 1018.94 1019.02 1019.14 1019.18 1019.30 1019.62 1019.98 1020.34 1020.38 1019.90 1019.42 1019.06 1018.58 1018.54 1018.78 1018.82 1018.70 1018.54 1018.46 1018.62 1018.86 1019.14 1019.34
Thickness
5771 5770 5770 5770 5770 5771 5771 5771 5771 5771 5770 5770 5770 5769 5770 5770 5770 5770 5770 5770 5770 5769 5769 5769 5769 5769 5769 5769 5768 5769 5770 5770 5770 5771 5772 5771 5771 5772 5772 5772 5773 5772
5772 5772 5772 5771 5771 5772 5773 5773 5773 5773 5772 5772 5773 5772 5772 5772 5771 5771 5771 5771 5771 5770 5770 5770 5770 5770 5770 5770 5770 5769 5770 5770 5771 5772 5772 5771 5772 5773 5772 5774 5774 5774
5773 5773 5773 5773 5773 5774 5774 5775 5774 5774 5774 5774 5775 5774 5774 5774 5773 5772 5771 5771 5771 5772 5771 5771 5771 5771 5771 5771 5770 5771 5771 5770 5771 5773 5772 5772 5773 5774 5774 5775 5776 5776
5774 5774 5775 5775 5776 5776 5776 5776 5775 5775 5775 5774 5775 5775 5775 5774 5773 5773 5772 5772 5772 5772 5772 5772 5772 5772 5772 5772 5771 5771 5772 5771 5772 5773 5772 5772 5774 5774 5775 5776 5775 5776
5776 5776 5776 5776 5777 5776 5776 5775 5775 5776 5776 5775 5776 5776 5775 5774 5774 5774 5773 5773 5773 5773 5773 5773 5772 5773 5772 5773 5772 5772 5772 5773 5773 5773 5772 5772 5774 5775 5776 5776 5774 5774
5777 5777 5777 5777 5777 5776 5776 5776 5776 5776 5777 5776 5777 5776 5776 5775 5774 5774 5774 5773 5774 5774 5774 5774 5774 5774 5774 5774 5773 5772 5772 5773 5774 5773 5772 5772 5774 5775 5776 5776 5773 5773
5778 5778 5778 5778 5778 5777 5777 5777 5777 5777 5778 5778 5777 5777 5777 5776 5775 5775 5774 5775 5775 5775 5775 5775 5774 5774 5775 5775 5773 5772 5772 5773 5773 5773 5772 5772 5773 5774 5775 5775 5774 5773
5779 5779 5779 5778 5778 5777 5777 5778 5777 5778 5779 5778 5777 5777 5778 5777 5776 5776 5776 5775 5775 5775 5775 5775 5775 5775 5775 5775 5774 5772 5773 5773 5774 5773 5771 5772 5773 5772 5774 5775 5774 5774
5779 5779 5780 5779 5778 5778 5778 5779 5779 5779 5779 5778 5778 5779 5779 5778 5777 5778 5777 5776 5775 5775 5775 5775 5775 5775 5776 5776 5774 5773 5773 5773 5775 5774 5772 5772 5773 5772 5774 5775 5774 5774
5778 5779 5779 5778 5778 5778 5779 5779 5780 5780 5779 5779 5779 5779 5779 5778 5778 5778 5777 5776 5775 5775 5775 5775 5775 5776 5775 5776 5776 5775 5774 5774 5774 5774 5774 5774 5773 5774 5775 5775 5774 5774
5777 5778 5777 5777 5777 5778 5778 5780 5780 5780 5780 5779 5779 5779 5779 5779 5779 5778 5777 5776 5776 5776 5776 5776 5776 5776 5776 5776 5777 5776 5776 5775 5775 5775 5774 5774 5774 5774 5775 5775 5774 5774
5776 5777 5777 5776 5776 5778 5778 5779 5780 5780 5780 5780 5779 5778 5778 5779 5778 5778 5778 5777 5777 5777 5777 5777 5777 5777 5776 5776 5776 5776 5776 5775 5775 5775 5774 5774 5775 5776 5776 5776 5776 5775
5776 5776 5776 5776 5777 5777 5778 5779 5779 5779 5779 5779 5779 5779 5778 5778 5778 5778 5778 5778 5778 5778 5778 5778 5778 5777 5777 5776 5776 5776 5775 5775 5775 5774 5774 5775 5775 5776 5777 5777 5777 5777
5776 5776 5777 5777 5777 5778 5778 5779 5779 5779 5778 5779 5779 5778 5777 5778 5778 5778 5778 5778 5778 5778 5778 5778 5778 5777 5777 5777 5776 5776 5775 5774 5775 5774 5774 5774 5775 5776 5777 5778 5778 5778
5776 5776 5777 5777 5777 5778 5777 5778 5778 5778 5778 5778 5777 5777 5777 5777 5778 5778 5777 5777 5777 5777 5778 5778 5777 5777 5777 5777 5776 5776 5775 5775 5775 5775 5774 5774 5774 5776 5777 5778 5778 5779
5776 5776 5776 5776 5776 5776 5776 5777 5777 5778 5777 5777 5777 5776 5776 5776 5776 5776 5776 5775 5775 5775 5775 5776 5776 5777 5777 5777 5776 5776 5776 5776 5775 5775 5775 5774 5774 5774 5775 5777 5778 5779
5776 5775 5775 5774 5774 5774 5775 5775 5775 5776 5776 5776 5776 5775 5774 5774 5773 5773 5773 5774 5774 5774 5775 5775 5776 5777 5777 5775 5776 5775 5775 5775 5774 5773 5774 5774 5773 5773 5774 5776 5778 5778
5774 5773 5772 5772 5772 5772 5772 5773 5773 5773 5772 5772 5772 5773 5772 5772 5772 5771 5771 5772 5773 5773 5773 5775 5776 5777 5777 5775 5775 5774 5774 5774 5774 5773 5773 5772 5772 5772 5773 5775 5777 5777
5771 5771 5769 5769 5770 5770 5771 5771 5770 5770 5769 5769 5769 5771 5771 5771 5770 5770 5770 5770 5771 5771 5772 5775 5777 5777 5776 5774 5774 5774 5772 5773 5774 5774 5772 5772 5772 5771 5770 5772 5775 5775
5769 5768 5766 5766 5767 5768 5768 5769 5769 5768 5768 5768 5767 5768 5768 5768 5768 5769 5769 5770 5771 5771 5771 5773 5774 5773 5772 5771 5770 5770 5769 5770 5771 5772 5771 5771 5773 5772 5771 5772 5774 5774
5766 5766 5764 5763 5762 5762 5763 5764 5765 5765 5766 5765 5765 5764 5764 5765 5766 5767 5768 5768 5770 5770 5769 5770 5770 5767 5766 5766 5766 5765 5765 5766 5768 5769 5770 5771 5772 5773 5772 5773 5773 5773
5762 5761 5761 5760 5758 5758 5758 5760 5760 5761 5761 5761 5760 5760 5761 5762 5762 5764 5764 5765 5767 5766 5765 5765 5764 5762 5760 5760 5761 5760 5761 5763 5765 5766 5767 5768 5770 5770 5771 5772 5772 5771
5756 5756 5757 5758 5757 5755 5755 5756 5758 5758 5758 5758 5755 5754 5757 5758 5758 5759 5759 5760 5761 5760 5760 5760 5759 5756 5755 5755 5755 5756 5757 5760 5762 5763 5763 5765 5766 5767 5768 5768 5768 5768
5750 5750 5753 5755 5755 5752 5751 5752 5754 5756 5756 5756 5752 5748 5749 5751 5753 5754 5755 5756 5756 5754 5753 5754 5752 5750 5749 5750 5751 5752 5753 5756 5758 5758 5759 5761 5762 5763 5763 5763 5763 5762
5747 5746 5749 5751 5749 5748 5748 5748 5748 5749 5751 5751 5749 5745 5741 5742 5748 5751 5751 5750 5750 5748 5747 5747 5745 5743 5742 5743 5745 5747 5750 5753 5754 5754 5754 5755 5756 5758 5758 5757 5756 5754
5744 5743 5746 5746 5743 5742 5745 5745 5744 5744 5746 5747 5747 5745 5739 5737 5741 5745 5745 5742 5741 5741 5742 5742 5740 5737 5735 5736 5738 5741 5744 5748 5749 5748 5748 5749 5749 5750 5750 5749 5748 5746